Location: Churchill Northern Studies Centre
(58.7378°N, 93.8201°W)
Time: 05:30:51
(UTC-05:00)

BEESAT 3 - Visible Passes

Search period start: 15 October 2018 00:00
Search period end: 25 October 2018 00:00
Orbit: 504 x 510 km, 64.9° (Epoch: 14 October)

Date Brightness Start Highest point End Pass type
(mag) Time Alt. Az. Time Alt. Az. Time Alt. Az.
17 Oct ? 07:12:18 10° S 07:15:13 20° ESE 07:18:08 10° ENE visible
18 Oct ? 06:53:57 10° S 06:56:48 20° ESE 06:59:41 10° ENE visible
19 Oct ? 06:35:34 10° SSE 06:38:23 19° ESE 06:41:13 10° ENE visible
20 Oct ? 06:17:13 10° SSE 06:19:58 19° ESE 06:22:45 10° ENE visible
21 Oct ? 05:58:50 10° SSE 06:01:33 18° ESE 06:04:16 10° ENE visible
22 Oct ? 05:40:28 10° SSE 05:43:07 18° ESE 05:45:48 10° ENE visible
22 Oct ? 07:16:11 10° SW 07:20:03 77° SE 07:23:57 10° NE visible
23 Oct ? 05:22:06 10° SSE 05:24:42 17° ESE 05:27:19 10° ENE visible
23 Oct ? 06:57:44 10° SW 07:01:36 76° SE 07:05:30 10° NE visible
24 Oct ? 05:04:27 13° SSE 05:06:16 17° ESE 05:08:49 10° ENE visible
24 Oct ? 06:39:18 10° SW 06:43:10 74° SE 06:47:03 10° NE visible
